Rechercher aéroport 
image banner adimage banner ad
image banner ad

SIXD - Fazenda da Paz Airport

Situé à Santana Do Livramento, Brazil

ICAO - SIXD, IATA -

Données fournies par Airmate  

Information générale

Coordonnées: S30°50'40" W55°34'5"
Élévation : 2267 feet MSL.
Variation magnétique : -13° East
Voir autres Aéroports à Rio Grande do Sul

Données opérationnelles

Accessible au public
Heure actuelle UTC:
Heure actuelle locale:
TAF: TAF SURV 230530Z 2306/2406 06010KT CAVOK TX34/2318Z TN18/2309Z BECMG 2318/2320 12012KT 9999 SCT026
Voir NOTAMs / SUP AIP / TFR affectant cet aéroport [VIEW]
Fréquences de communication: [VIEW]

Pistes:

Identifiant RWYQFULongueur (ft)Largeur (ft)SurfaceLDA (ft)
11252675GRASS
29252675GRASS

Coordonnées de l'aéroport

Adresse: Santana Do Livramento Brazil

Vue satellite de SIXD